This is the latest recevied weather packets stored in our database for station/object W8CEN. If no packets are shown the sender has not sent any weather packets the latest 10 day(s).
| Time | Temp. | Humidity | Pressure | Rain* | Wind** | Luminosity | Snow |
|---|---|---|---|---|---|---|---|
| 1777732215 | 5.56° C | 79% | 996.6 hPa | 0 mm | - | 178 W/m² | - |
| 1777731911 | 5.56° C | 77% | 996.7 hPa | 0 mm | - | 154 W/m² | - |
| 1777731608 | 5.56° C | 79% | 996.5 hPa | 0 mm | - | 118 W/m² | - |
| 1777731305 | 5.56° C | 84% | 996.5 hPa | 0 mm | - | 98 W/m² | - |
| 1777731002 | 5.56° C | 85% | 996.5 hPa | 0 mm | - | 87 W/m² | - |
| 1777730701 | 5.56° C | 85% | 996.6 hPa | 0 mm | - | 57 W/m² | - |
| 1777730397 | 5.56° C | 84% | 996.6 hPa | 0 mm | - | 49 W/m² | - |
| 1777730093 | 5.56° C | 84% | 996.4 hPa | 0 mm | - | 55 W/m² | - |
| 1777729790 | 5.56° C | 83% | 996.3 hPa | 0 mm | - | 64 W/m² | - |
| 1777729486 | 5.56° C | 81% | 996.4 hPa | 0 mm | - | 72 W/m² | - |
| 1777729184 | 5.56° C | 80% | 996.4 hPa | 0 mm | - | 75 W/m² | - |
| 1777728880 | 5.56° C | 79% | 996.5 hPa | 0 mm | - | 81 W/m² | - |
| 1777728577 | 5.56° C | 80% | 996.5 hPa | 0 mm | - | 81 W/m² | - |
| 1777728274 | 5° C | 80% | 996.3 hPa | 0 mm | - | 93 W/m² | - |
| 1777727971 | 5° C | 81% | 996.4 hPa | 0 mm | - | 99 W/m² | - |
| 1777727668 | 5° C | 81% | 996.3 hPa | 0 mm | - | 110 W/m² | - |
| 1777727365 | 5° C | 82% | 996.3 hPa | 0 mm | - | 100 W/m² | - |
| 1777727062 | 5° C | 81% | 996.4 hPa | 0 mm | - | 73 W/m² | - |
| 1777726760 | 5° C | 80% | 996.3 hPa | 0 mm | - | 67 W/m² | - |
| 1777726457 | 5° C | 83% | 996.2 hPa | 0 mm | - | 78 W/m² | - |
| 1777726153 | 4.44° C | 83% | 996.4 hPa | 0 mm | - | 83 W/m² | - |
| 1777725850 | 4.44° C | 84% | 996.2 hPa | 0 mm | - | 65 W/m² | - |
| 1777725548 | 4.44° C | 84% | 996.2 hPa | 0 mm | - | 53 W/m² | - |
| 1777725245 | 4.44° C | 84% | 996.1 hPa | 0 mm | - | 41 W/m² | - |
| 1777724942 | 4.44° C | 82% | 996.3 hPa | 0 mm | - | 30 W/m² | - |
* Rain latest hour (hover to see other rain measurements)
** Current wind speed in m/s (hover to see current wind gust speed)